Radioactive Concentration measured by Seawater Radiation Monitor near Fukushima Daiichi Nuclear Power Station
Date,Time,Cs137(Bq/L),Cs134(Bq/L),Total β(Bq/L)
2020/03/04,00:00,0.10,ND,18
2020/03/04,00:10,0.094,ND,21
2020/03/04,00:20,0.078,ND,21
2020/03/04,00:30,0.094,ND,21
2020/03/04,00:40,0.068,ND,22
2020/03/04,00:50,0.074,ND,22
2020/03/04,01:00,0.094,ND,23
2020/03/04,01:10,0.092,ND,22
2020/03/04,01:20,0.075,ND,23
2020/03/04,01:30,0.076,ND,24
2020/03/04,01:40,0.092,ND,22
2020/03/04,01:50,0.094,ND,23
2020/03/04,02:00,0.082,ND,22
2020/03/04,02:10,0.096,ND,23
2020/03/04,02:20,0.090,ND,22
2020/03/04,02:30,0.10,ND,20
2020/03/04,02:40,0.10,ND,23
2020/03/04,02:50,0.089,ND,21
2020/03/04,03:00,0.10,ND,23
2020/03/04,03:10,0.10,ND,22
2020/03/04,03:20,0.11,ND,24
2020/03/04,03:30,0.099,ND,26
2020/03/04,03:40,0.091,ND,26
2020/03/04,03:50,0.10,ND,27
2020/03/04,04:00,0.094,ND,25
2020/03/04,04:10,0.096,ND,27
2020/03/04,04:20,0.058,ND,26
2020/03/04,04:30,0.090,ND,26
2020/03/04,04:40,0.090,ND,25
2020/03/04,04:50,0.065,ND,25
2020/03/04,05:00,0.089,ND,26
2020/03/04,05:10,0.10,ND,24
2020/03/04,05:20,0.098,ND,26
2020/03/04,05:30,0.085,ND,25
2020/03/04,05:40,0.082,ND,24
2020/03/04,05:50,0.070,ND,25
2020/03/04,06:00,0.082,ND,24
2020/03/04,06:10,0.076,ND,25
2020/03/04,06:20,0.080,ND,25
2020/03/04,06:30,0.11,ND,24
2020/03/04,06:40,0.13,ND,24
2020/03/04,06:50,0.12,ND,22
2020/03/04,07:00,0.12,ND,24
2020/03/04,07:10,0.12,ND,22
2020/03/04,07:20,0.12,ND,22
2020/03/04,07:30,0.066,ND,22
2020/03/04,07:40,0.052,ND,21
2020/03/04,07:50,0.055,ND,21
2020/03/04,08:00,0.057,ND,21
2020/03/04,08:10,0.051,ND,24
2020/03/04,08:20,ND,ND,25
2020/03/04,08:30,0.077,ND,26
2020/03/04,08:40,0.051,ND,27
2020/03/04,08:50,0.057,ND,28
2020/03/04,09:00,0.097,ND,27
2020/03/04,09:10,0.056,ND,26
2020/03/04,09:20,ND,ND,27
2020/03/04,09:30,0.058,ND,22
2020/03/04,09:40,0.089,ND,23
2020/03/04,09:50,0.088,ND,23
2020/03/04,10:00,0.089,ND,22
2020/03/04,10:10,0.099,ND,22
2020/03/04,10:20,0.11,ND,19
2020/03/04,10:30,0.11,ND,26
2020/03/04,10:40,0.11,ND,26
2020/03/04,10:50,0.10,ND,28
2020/03/04,11:00,0.092,ND,28
2020/03/04,11:10,0.11,ND,27
2020/03/04,11:20,0.13,ND,29
2020/03/04,11:30,0.12,ND,27
2020/03/04,11:40,0.14,ND,25
2020/03/04,11:50,0.15,ND,24
2020/03/04,12:00,0.18,ND,26
2020/03/04,12:10,0.19,ND,25
2020/03/04,12:20,0.17,ND,25
2020/03/04,12:30,0.17,ND,23
2020/03/04,12:40,0.16,ND,22
2020/03/04,12:50,0.15,ND,18
2020/03/04,13:00,0.13,ND,16
2020/03/04,13:10,0.11,ND,17
2020/03/04,13:20,0.11,ND,16
2020/03/04,13:30,0.11,ND,17
2020/03/04,13:40,0.072,ND,18
2020/03/04,13:50,0.065,ND,22
2020/03/04,14:00,0.060,ND,23
2020/03/04,14:10,0.062,ND,23
2020/03/04,14:20,0.065,ND,27
2020/03/04,14:30,0.075,ND,26
2020/03/04,14:40,0.087,ND,28
2020/03/04,14:50,0.095,ND,28
2020/03/04,15:00,0.098,ND,24
2020/03/04,15:10,0.085,ND,25
2020/03/04,15:20,0.065,ND,22
2020/03/04,15:30,0.088,ND,21
2020/03/04,15:40,0.074,ND,17
2020/03/04,15:50,0.077,ND,16
2020/03/04,16:00,0.12,ND,20
2020/03/04,16:10,0.14,ND,19
2020/03/04,16:20,0.15,ND,21
2020/03/04,16:30,0.17,ND,25
2020/03/04,16:40,0.16,ND,29
2020/03/04,16:50,0.16,ND,29
2020/03/04,17:00,0.15,ND,31
2020/03/04,17:10,0.12,ND,30
2020/03/04,17:20,0.12,ND,29
2020/03/04,17:30,0.12,ND,26
2020/03/04,17:40,0.11,ND,24
2020/03/04,17:50,0.11,ND,25
2020/03/04,18:00,0.12,ND,23
2020/03/04,18:10,0.13,ND,22
2020/03/04,18:20,0.13,ND,23
2020/03/04,18:30,0.17,ND,21
2020/03/04,18:40,0.17,ND,20
2020/03/04,18:50,0.18,ND,20
2020/03/04,19:00,0.18,ND,20
2020/03/04,19:10,0.13,ND,19
2020/03/04,19:20,0.12,ND,19
2020/03/04,19:30,0.12,ND,23
2020/03/04,19:40,0.11,ND,25
2020/03/04,19:50,0.12,ND,24
2020/03/04,20:00,0.15,ND,23
2020/03/04,20:10,0.16,ND,25
2020/03/04,20:20,0.17,ND,23
2020/03/04,20:30,0.17,ND,19
2020/03/04,20:40,0.19,ND,22
2020/03/04,20:50,0.19,ND,20
2020/03/04,21:00,0.20,ND,19
2020/03/04,21:10,0.15,ND,19
2020/03/04,21:20,0.14,ND,22
2020/03/04,21:30,0.19,ND,23
2020/03/04,21:40,0.14,ND,23
2020/03/04,21:50,0.12,ND,26
2020/03/04,22:00,0.12,ND,27
2020/03/04,22:10,0.14,ND,28
2020/03/04,22:20,0.15,ND,28
2020/03/04,22:30,0.14,ND,30
2020/03/04,22:40,0.14,ND,29
2020/03/04,22:50,0.13,ND,28
2020/03/04,23:00,0.14,ND,28
2020/03/04,23:10,0.13,ND,28
2020/03/04,23:20,0.13,ND,26
2020/03/04,23:30,0.12,ND,26
2020/03/04,23:40,0.15,ND,26
2020/03/04,23:50,0.15,ND,28
